Location: Unspecified
(0.0000°N, 0.0000°E)
Time: 21:44:55
(UTC+00:00)

N. Korean satellite - Pass Details

Date: 23 March 2023
Orbit: 390 x 416 km, 97.3° (Epoch: 29 March)

Event Time Altitude Azimuth Distance (km) Brightness Sun altitude
Rises 04:39:21 0° 28° (NNE) 2,287 10.4 -21.8°
Reaches altitude 10° 04:41:30 10° 40° (NE) 1,429 9.5 -21.3°
Maximum altitude 04:44:09 27° 101° (E) 783 8.3 -20.7°
Drops below altitude 10° 04:46:48 10° 162° (SSE) 1,426 9.1 -20.0°
Sets 04:48:56 0° 174° (S) 2,282 10.0 -19.5°
